Location: Newark
(40.0667°N, 18.0500°E)
Time: 05:43:23
(UTC+00:00)

N. Korean satellite - Visible Passes

Search period start: 26 January 2020 00:00
Search period end: 05 February 2020 00:00
Orbit: 454 x 507 km, 97.2° (Epoch: 25 January)

Date Brightness Start Highest point End Pass type
(mag) Time Alt. Az. Time Alt. Az. Time Alt. Az.
26 Jan 9.5 03:47:21 10° NE 03:49:56 18° E 03:52:32 10° SE visible
26 Jan 7.6 05:20:19 10° NNW 05:23:17 25° WNW 05:26:16 10° SW visible
27 Jan 6.6 04:54:23 10° N 04:57:54 53° WNW 05:01:27 10° SSW visible
28 Jan 6.9 04:28:50 10° NNE 04:32:26 68° E 04:36:04 10° S visible
28 Jan 9.6 16:37:50 10° SW 16:40:21 19° W 16:42:54 10° NW visible
29 Jan 8.6 04:03:39 10° NE 04:06:53 30° E 04:10:08 10° SSE visible
30 Jan 9.8 03:39:07 10° ENE 03:41:16 15° E 03:43:24 10° SE visible
30 Jan 7.3 05:11:27 10° N 05:14:42 31° WNW 05:17:58 10° SW visible
31 Jan 6.5 04:45:41 10° N 04:49:17 70° WNW 04:52:56 10° SSW visible
31 Jan 10.1 16:56:01 10° WSW 16:57:19 12° W 16:58:37 10° WNW visible
01 Feb 7.5 04:20:14 10° NNE 04:23:48 51° E 04:27:23 10° S visible
01 Feb 9.3 16:28:47 10° SSW 16:31:38 24° W 16:34:31 10° NW visible
02 Feb 9.1 03:55:12 10° NE 03:58:13 24° E 04:01:14 10° SSE visible
03 Feb 10.1 03:31:07 10° ENE 03:32:33 12° E 03:33:57 10° ESE visible
03 Feb 7.0 05:02:38 10° N 05:06:05 40° WNW 05:09:34 10° SW visible
04 Feb 6.6 04:36:58 10° NNE 04:40:39 89° ESE 04:44:20 10° SSW visible
04 Feb 9.8 16:46:29 10° SW 16:48:33 15° W 16:50:39 10° NW visible
